| time (UTC) | temp F | wind direction | speed MPH | gust MPH | rain 1hr in | rain 24hr in | rain mn in | humidity % | barometer mb |
| 20260502170516 | 54 | 269 | 1.0 | 7.0 | 0.00 | 0.00 | 0.00 | 54 | 1017.7 |
| 20260502164014 | 54 | 277 | 3.0 | 8.0 | 0.00 | 0.00 | 0.00 | 56 | 1017.8 |
| 20260502163513 | 55 | 316 | 2.0 | 9.0 | 0.00 | 0.00 | 0.00 | 57 | 1017.8 |
| 20260502163035 | 54 | 5 | 3.0 | 9.0 | 0.00 | 0.00 | 0.00 | 55 | 1017.8 |
| 20260502162517 | 54 | 250 | 1.0 | 9.0 | 0.00 | 0.00 | 0.00 | 58 | 1017.9 |
| 20260502162015 | 54 | 316 | 2.0 | 9.0 | 0.00 | 0.00 | 0.00 | 58 | 1018.0 |
| 20260502161532 | 55 | 352 | 3.0 | 7.0 | 0.00 | 0.00 | 0.00 | 56 | 1018.0 |
| 20260502161011 | 54 | 288 | 2.0 | 7.0 | 0.00 | 0.00 | 0.00 | 57 | 1018.0 |
| 20260502160515 | 54 | 357 | 4.0 | 7.0 | 0.00 | 0.00 | 0.00 | 57 | 1018.0 |
| 20260502152014 | 53 | 228 | 1.0 | 5.0 | 0.00 | 0.00 | 0.00 | 57 | 1017.8 |
| 20260502151534 | 53 | 262 | 3.0 | 5.0 | 0.00 | 0.00 | 0.00 | 59 | 1018.0 |
| 20260502151020 | 53 | 337 | 2.0 | 5.0 | 0.00 | 0.00 | 0.00 | 59 | 1017.9 |
| 20260502150515 | 53 | 357 | 2.0 | 5.0 | 0.00 | 0.00 | 0.00 | 56 | 1017.9 |
| 20260502130514 | 49 | 60 | 2.0 | 6.0 | 0.00 | 0.00 | 0.00 | 64 | 1017.6 |
| 20260502123513 | 45 | 68 | 2.0 | 8.0 | 0.00 | 0.00 | 0.00 | 75 | 1017.5 |
| 20260502123031 | 45 | 68 | 3.0 | 8.0 | 0.00 | 0.00 | 0.00 | 76 | 1017.6 |
| 20260502122513 | 44 | 59 | 2.0 | 7.0 | 0.00 | 0.00 | 0.00 | 78 | 1017.6 |
| 20260502122012 | 44 | 73 | 2.0 | 7.0 | 0.00 | 0.00 | 0.00 | 79 | 1017.7 |
| 20260502121542 | 43 | 63 | 4.0 | 7.0 | 0.00 | 0.00 | 0.00 | 78 | 1017.5 |
| 20260502121013 | 43 | 94 | 3.0 | 7.0 | 0.00 | 0.00 | 0.00 | 78 | 1017.7 |
| 20260502120514 | 43 | 354 | 4.0 | 7.0 | 0.00 | 0.00 | 0.00 | 79 | 1017.6 |
| 20260502115517 | 43 | 79 | 2.0 | 7.0 | 0.00 | 0.00 | 0.00 | 80 | 1017.4 |
| 20260502115014 | 43 | 70 | 2.0 | 7.0 | 0.00 | 0.00 | 0.00 | 81 | 1017.4 |
| 20260502114533 | 43 | 70 | 3.0 | 7.0 | 0.00 | 0.00 | 0.00 | 81 | 1017.4 |
| 20260502114011 | 42 | 47 | 2.0 | 7.0 | 0.00 | 0.00 | 0.00 | 82 | 1017.2 |
| 20260502113516 | 41 | 71 | 2.0 | 6.0 | 0.00 | 0.00 | 0.00 | 84 | 1017.2 |
| 20260502113032 | 41 | 52 | 1.0 | 4.0 | 0.00 | 0.00 | 0.00 | 84 | 1017.0 |
| 20260502112513 | 41 | 57 | 1.0 | 4.0 | 0.00 | 0.00 | 0.00 | 84 | 1016.9 |
| 20260502112010 | 40 | 89 | 0.0 | 4.0 | 0.00 | 0.00 | 0.00 | 85 | 1017.0 |
| 20260502111530 | 40 | 81 | 1.0 | 5.0 | 0.00 | 0.00 | 0.00 | 84 | 1016.9 |
| 20260502111013 | 40 | 68 | 3.0 | 5.0 | 0.00 | 0.00 | 0.00 | 84 | 1016.8 |
| 20260502110513 | 40 | 59 | 2.0 | 4.0 | 0.00 | 0.00 | 0.00 | 84 | 1017.0 |
| 20260502110033 | 40 | 63 | 1.0 | 2.0 | 0.00 | 0.00 | 0.00 | 85 | 1016.8 |
| 20260502105516 | 40 | 62 | 1.0 | 2.0 | 0.00 | 0.00 | 0.00 | 84 | 1016.7 |
| 20260502105014 | 40 | 51 | 0.0 | 2.0 | 0.00 | 0.00 | 0.00 | 84 | 1016.9 |
| 20260502104542 | 40 | 42 | 0.0 | 2.0 | 0.00 | 0.00 | 0.00 | 84 | 1017.0 |
| 20260502104013 | 41 | 0 | 0.0 | 4.0 | 0.00 | 0.00 | 0.00 | 84 | 1016.9 |
| 20260502103511 | 41 | 67 | 0.0 | 4.0 | 0.00 | 0.00 | 0.00 | 83 | 1016.8 |
| 20260502103030 | 41 | 67 | 1.0 | 6.0 | 0.00 | 0.00 | 0.00 | 83 | 1016.8 |
| 20260502102513 | 41 | 68 | 2.0 | 6.0 | 0.00 | 0.00 | 0.00 | 83 | 1016.6 |
| 20260502102015 | 41 | 53 | 2.0 | 5.0 | 0.00 | 0.00 | 0.00 | 83 | 1016.6 |
| 20260502101530 | 41 | 70 | 2.0 | 5.0 | 0.00 | 0.00 | 0.00 | 83 | 1016.7 |
| 20260502101011 | 41 | 70 | 1.0 | 4.0 | 0.00 | 0.00 | 0.00 | 83 | 1016.5 |
| 20260502100513 | 41 | 72 | 1.0 | 4.0 | 0.00 | 0.00 | 0.00 | 83 | 1016.6 |
| 20260502091531 | 42 | 79 | 0.0 | 2.0 | 0.00 | 0.00 | 0.00 | 82 | 1016.8 |
| 20260502091013 | 42 | 61 | 1.0 | 2.0 | 0.00 | 0.00 | 0.00 | 82 | 1016.8 |
| 20260502090512 | 42 | 61 | 1.0 | 4.0 | 0.00 | 0.00 | 0.00 | 82 | 1016.7 |
| 20260502071012 | 42 | 0 | 0.0 | 2.0 | 0.00 | 0.00 | 0.00 | 81 | 1016.4 |
| 20260502070513 | 42 | 0 | 0.0 | 3.0 | 0.00 | 0.00 | 0.00 | 80 | 1016.4 |
| 20260502070030 | 42 | 8 | 0.0 | 3.0 | 0.00 | 0.00 | 0.00 | 80 | 1016.5 |
| 20260502065511 | 42 | 62 | 1.0 | 3.0 | 0.00 | 0.00 | 0.00 | 80 | 1016.6 |
| 20260502065013 | 42 | 72 | 1.0 | 2.0 | 0.00 | 0.00 | 0.00 | 80 | 1016.6 |
| 20260502064532 | 42 | 71 | 0.0 | 2.0 | 0.00 | 0.00 | 0.00 | 80 | 1016.6 |
| 20260502064012 | 43 | 0 | 0.0 | 3.0 | 0.00 | 0.00 | 0.00 | 80 | 1016.8 |
| 20260502063511 | 43 | 0 | 0.0 | 4.0 | 0.00 | 0.00 | 0.00 | 79 | 1016.7 |
| 20260502063031 | 43 | 57 | 0.0 | 4.0 | 0.00 | 0.00 | 0.00 | 78 | 1016.6 |
| 20260502062513 | 43 | 45 | 2.0 | 4.0 | 0.00 | 0.00 | 0.00 | 77 | 1016.6 |
| 20260502062014 | 44 | 63 | 1.0 | 3.0 | 0.00 | 0.00 | 0.00 | 77 | 1016.7 |
| 20260502061532 | 44 | 71 | 1.0 | 5.0 | 0.00 | 0.00 | 0.00 | 78 | 1016.8 |
| 20260502061013 | 44 | 65 | 1.0 | 5.0 | 0.00 | 0.00 | 0.00 | 78 | 1016.7 |
| 20260502060511 | 44 | 74 | 1.0 | 5.0 | 0.00 | 0.00 | 0.00 | 77 | 1016.8 |
| 20260502060030 | 44 | 55 | 2.0 | 5.0 | 0.00 | 0.00 | 0.00 | 77 | 1016.9 |
| 20260502055516 | 43 | 65 | 2.0 | 5.0 | 0.00 | 0.00 | 0.00 | 78 | 1017.0 |
| 20260502055015 | 43 | 62 | 1.0 | 2.0 | 0.00 | 0.00 | 0.00 | 79 | 1017.1 |
| 20260502054532 | 43 | 41 | 0.0 | 1.0 | 0.00 | 0.00 | 0.00 | 80 | 1017.2 |
| 20260502054011 | 43 | 41 | 0.0 | 1.0 | 0.00 | 0.00 | 0.00 | 80 | 1017.2 |
| 20260502053512 | 43 | 0 | 0.0 | 2.0 | 0.00 | 0.00 | 0.00 | 80 | 1017.3 |
| 20260502053030 | 43 | 41 | 0.0 | 2.0 | 0.00 | 0.00 | 0.00 | 80 | 1017.3 |
| 20260502052513 | 43 | 41 | 0.0 | 2.0 | 0.00 | 0.00 | 0.00 | 80 | 1017.3 |
| 20260502052013 | 43 | 0 | 0.0 | 1.0 | 0.00 | 0.00 | 0.00 | 79 | 1017.3 |
| 20260502051548 | 44 | 0 | 0.0 | 1.0 | 0.00 | 0.00 | 0.00 | 79 | 1017.3 |
| 20260502051014 | 44 | 0 | 0.0 | 1.0 | 0.00 | 0.00 | 0.00 | 78 | 1017.4 |
| 20260502050513 | 45 | 0 | 0.0 | 1.0 | 0.00 | 0.00 | 0.00 | 76 | 1017.2 |
| 20260502050031 | 45 | 41 | 0.0 | 3.0 | 0.00 | 0.00 | 0.00 | 76 | 1017.2 |
| 20260502045511 | 45 | 0 | 0.0 | 3.0 | 0.00 | 0.00 | 0.00 | 75 | 1017.1 |
| 20260502045014 | 46 | 0 | 0.0 | 5.0 | 0.00 | 0.00 | 0.00 | 74 | 1017.2 |
| 20260502044533 | 46 | 340 | 2.0 | 6.0 | 0.00 | 0.00 | 0.00 | 74 | 1017.3 |
| 20260502044013 | 46 | 27 | 3.0 | 6.0 | 0.00 | 0.00 | 0.00 | 74 | 1017.3 |
| 20260502043514 | 45 | 42 | 2.0 | 6.0 | 0.00 | 0.00 | 0.00 | 75 | 1017.3 |
| 20260502043032 | 44 | 11 | 2.0 | 4.0 | 0.00 | 0.00 | 0.00 | 77 | 1017.3 |
| 20260502042515 | 44 | 32 | 1.0 | 3.0 | 0.00 | 0.00 | 0.00 | 79 | 1017.3 |
| 20260502042015 | 43 | 32 | 1.0 | 3.0 | 0.00 | 0.00 | 0.00 | 80 | 1017.4 |
| 20260502041530 | 42 | 36 | 0.0 | 2.0 | 0.00 | 0.00 | 0.00 | 83 | 1017.4 |
| 20260502041013 | 42 | 0 | 0.0 | 1.0 | 0.00 | 0.00 | 0.00 | 85 | 1017.4 |
| 20260502040513 | 42 | 0 | 0.0 | 1.0 | 0.00 | 0.00 | 0.00 | 84 | 1017.4 |
| 20260502040032 | 42 | 0 | 0.0 | 0.0 | 0.00 | 0.00 | 0.00 | 83 | 1017.5 |
| 20260502035513 | 43 | 0 | 0.0 | 0.0 | 0.00 | 0.00 | 0.00 | 83 | 1017.4 |
| 20260502035013 | 43 | 0 | 0.0 | 0.0 | 0.00 | 0.00 | 0.00 | 82 | 1017.4 |
| 20260502034539 | 43 | 0 | 0.0 | 0.0 | 0.00 | 0.00 | 0.00 | 82 | 1017.4 |
| 20260502034013 | 44 | 0 | 0.0 | 0.0 | 0.00 | 0.00 | 0.00 | 82 | 1017.3 |
| 20260502033514 | 44 | 0 | 0.0 | 0.0 | 0.00 | 0.00 | 0.00 | 82 | 1017.3 |
| 20260502033042 | 43 | 0 | 0.0 | 0.0 | 0.00 | 0.00 | 0.00 | 80 | 1017.4 |
| 20260502032510 | 44 | 0 | 0.0 | 1.0 | 0.00 | 0.00 | 0.00 | 79 | 1017.3 |
| 20260502032011 | 44 | 0 | 0.0 | 1.0 | 0.00 | 0.00 | 0.00 | 79 | 1017.2 |
| 20260502031530 | 44 | 0 | 0.0 | 1.0 | 0.00 | 0.00 | 0.00 | 79 | 1017.3 |
| 20260502031013 | 44 | 0 | 0.0 | 1.0 | 0.00 | 0.00 | 0.00 | 79 | 1017.3 |
| 20260502030514 | 45 | 0 | 0.0 | 1.0 | 0.00 | 0.00 | 0.00 | 79 | 1017.3 |
| 20260502030032 | 45 | 0 | 0.0 | 0.0 | 0.00 | 0.00 | 0.00 | 78 | 1017.3 |
| 20260502025512 | 45 | 0 | 0.0 | 0.0 | 0.00 | 0.00 | 0.00 | 76 | 1017.4 |
| 20260502025010 | 46 | 0 | 0.0 | 0.0 | 0.00 | 0.00 | 0.00 | 75 | 1017.5 |
| 20260502024532 | 46 | 0 | 0.0 | 0.0 | 0.00 | 0.00 | 0.00 | 75 | 1017.5 |
| 20260502024010 | 46 | 0 | 0.0 | 0.0 | 0.00 | 0.00 | 0.00 | 74 | 1017.5 |
| 20260502023519 | 47 | 0 | 0.0 | 0.0 | 0.00 | 0.00 | 0.00 | 72 | 1017.5 |
| 20260502023033 | 47 | 0 | 0.0 | 0.0 | 0.00 | 0.00 | 0.00 | 70 | 1017.4 |
| 20260502022513 | 48 | 0 | 0.0 | 0.0 | 0.00 | 0.00 | 0.00 | 69 | 1017.3 |
| 20260502022013 | 48 | 0 | 0.0 | 1.0 | 0.00 | 0.00 | 0.00 | 68 | 1017.3 |
| 20260502021531 | 49 | 0 | 0.0 | 1.0 | 0.00 | 0.00 | 0.00 | 67 | 1017.2 |
| 20260502021013 | 49 | 44 | 0.0 | 1.0 | 0.00 | 0.00 | 0.00 | 66 | 1017.1 |
| 20260502020511 | 49 | 0 | 0.0 | 1.0 | 0.00 | 0.00 | 0.00 | 66 | 1016.9 |
| 20260502020030 | 49 | 0 | 0.0 | 2.0 | 0.00 | 0.00 | 0.00 | 65 | 1016.8 |
| 20260502015512 | 50 | 44 | 0.0 | 2.0 | 0.00 | 0.00 | 0.00 | 65 | 1016.7 |
| 20260502015014 | 50 | 44 | 0.0 | 2.0 | 0.00 | 0.00 | 0.00 | 64 | 1016.6 |
| 20260502014532 | 50 | 69 | 0.0 | 3.0 | 0.00 | 0.00 | 0.00 | 63 | 1016.4 |
| 20260502014018 | 50 | 49 | 0.0 | 7.0 | 0.00 | 0.00 | 0.00 | 63 | 1016.5 |
| 20260502013513 | 51 | 49 | 1.0 | 7.0 | 0.00 | 0.00 | 0.00 | 62 | 1016.5 |
| 20260502013032 | 51 | 43 | 3.0 | 6.0 | 0.00 | 0.00 | 0.00 | 62 | 1016.4 |
| 20260502012514 | 51 | 49 | 3.0 | 7.0 | 0.00 | 0.00 | 0.00 | 62 | 1016.2 |
| 20260502012014 | 51 | 44 | 3.0 | 7.0 | 0.00 | 0.00 | 0.00 | 62 | 1016.3 |
| 20260502011531 | 51 | 34 | 4.0 | 7.0 | 0.00 | 0.00 | 0.00 | 61 | 1016.2 |
| 20260502011013 | 51 | 49 | 2.0 | 6.0 | 0.00 | 0.00 | 0.00 | 61 | 1016.1 |
| 20260502010514 | 52 | 49 | 4.0 | 6.0 | 0.00 | 0.00 | 0.00 | 61 | 1016.0 |
| 20260502010032 | 52 | 30 | 3.0 | 6.0 | 0.00 | 0.00 | 0.00 | 60 | 1016.0 |
| 20260502005513 | 52 | 34 | 3.0 | 6.0 | 0.00 | 0.00 | 0.00 | 60 | 1015.9 |
| 20260502005013 | 53 | 46 | 3.0 | 6.0 | 0.00 | 0.00 | 0.00 | 59 | 1015.9 |
| 20260502004530 | 53 | 46 | 3.0 | 6.0 | 0.00 | 0.00 | 0.00 | 59 | 1015.9 |
| 20260502004014 | 53 | 33 | 2.0 | 6.0 | 0.00 | 0.00 | 0.00 | 59 | 1015.9 |
| 20260502003513 | 53 | 42 | 2.0 | 5.0 | 0.00 | 0.00 | 0.00 | 58 | 1015.8 |
| 20260502003033 | 54 | 33 | 1.0 | 5.0 | 0.00 | 0.00 | 0.00 | 58 | 1015.8 |
| 20260502002509 | 54 | 34 | 1.0 | 7.0 | 0.00 | 0.00 | 0.00 | 57 | 1015.8 |
| 20260502002016 | 54 | 31 | 1.0 | 9.0 | 0.00 | 0.00 | 0.00 | 58 | 1015.7 |
| 20260502001530 | 55 | 37 | 3.0 | 9.0 | 0.00 | 0.00 | 0.00 | 57 | 1015.6 |
| 20260502001014 | 55 | 44 | 4.0 | 8.0 | 0.00 | 0.00 | 0.00 | 57 | 1015.3 |
| 20260502000512 | 55 | 58 | 3.0 | 7.0 | 0.00 | 0.00 | 0.00 | 56 | 1015.0 |
| 20260502000031 | 55 | 342 | 2.0 | 6.0 | 0.00 | 0.00 | 0.00 | 56 | 1014.9 |
| 20260501235511 | 54 | 42 | 3.0 | 6.0 | 0.00 | 0.00 | 0.00 | 55 | 1014.8 |
| 20260501235011 | 55 | 43 | 2.0 | 6.0 | 0.00 | 0.00 | 0.00 | 56 | 1014.6 |
| 20260501234540 | 55 | 4 | 4.0 | 8.0 | 0.00 | 0.00 | 0.00 | 55 | 1014.5 |
| 20260501234011 | 55 | 347 | 4.0 | 11.0 | 0.00 | 0.00 | 0.00 | 56 | 1014.5 |
| 20260501233516 | 55 | 1 | 4.0 | 16.0 | 0.00 | 0.00 | 0.00 | 54 | 1014.4 |
| 20260501233031 | 55 | 8 | 6.0 | 16.0 | 0.00 | 0.00 | 0.00 | 54 | 1014.5 |
| 20260501232516 | 55 | 31 | 6.0 | 16.0 | 0.00 | 0.00 | 0.00 | 54 | 1014.5 |
| 20260501232015 | 55 | 7 | 4.0 | 7.0 | 0.00 | 0.00 | 0.00 | 55 | 1014.6 |
| 20260501231546 | 55 | 10 | 3.0 | 10.0 | 0.00 | 0.00 | 0.00 | 55 | 1014.7 |
| 20260501231014 | 55 | 33 | 4.0 | 12.0 | 0.00 | 0.00 | 0.00 | 54 | 1014.7 |
| 20260501230513 | 56 | 325 | 4.0 | 12.0 | 0.00 | 0.00 | 0.00 | 54 | 1014.7 |
| 20260501230030 | 56 | 312 | 6.0 | 11.0 | 0.00 | 0.00 | 0.00 | 54 | 1014.9 |
| 20260501225513 | 56 | 34 | 4.0 | 11.0 | 0.00 | 0.00 | 0.00 | 55 | 1014.8 |
| 20260501225012 | 56 | 41 | 4.0 | 11.0 | 0.00 | 0.00 | 0.00 | 54 | 1014.7 |
| 20260501224532 | 56 | 46 | 3.0 | 9.0 | 0.00 | 0.00 | 0.00 | 55 | 1014.6 |
| 20260501224014 | 56 | 42 | 5.0 | 11.0 | 0.00 | 0.00 | 0.00 | 55 | 1014.6 |
| 20260501223514 | 57 | 14 | 4.0 | 11.0 | 0.00 | 0.00 | 0.00 | 54 | 1014.6 |
| 20260501223029 | 57 | 20 | 4.0 | 11.0 | 0.00 | 0.00 | 0.00 | 54 | 1014.5 |
| 20260501222513 | 57 | 24 | 6.0 | 11.0 | 0.00 | 0.00 | 0.00 | 54 | 1014.5 |
| 20260501222011 | 56 | 272 | 4.0 | 12.0 | 0.00 | 0.00 | 0.00 | 55 | 1014.6 |
| 20260501221532 | 56 | 1 | 6.0 | 13.0 | 0.00 | 0.00 | 0.00 | 53 | 1014.6 |
| 20260501221013 | 56 | 20 | 5.0 | 13.0 | 0.00 | 0.00 | 0.00 | 52 | 1014.5 |
| 20260501220514 | 56 | 32 | 8.0 | 13.0 | 0.00 | 0.00 | 0.00 | 51 | 1014.5 |
| 20260501220031 | 56 | 32 | 7.0 | 18.0 | 0.00 | 0.00 | 0.00 | 52 | 1014.5 |
| 20260501215511 | 57 | 320 | 6.0 | 18.0 | 0.00 | 0.00 | 0.00 | 52 | 1014.5 |
| 20260501215013 | 57 | 304 | 7.0 | 14.0 | 0.00 | 0.00 | 0.00 | 52 | 1014.6 |
| 20260501214544 | 57 | 1 | 3.0 | 12.0 | 0.00 | 0.00 | 0.00 | 54 | 1014.6 |
| 20260501214011 | 57 | 48 | 4.0 | 12.0 | 0.00 | 0.00 | 0.00 | 54 | 1014.6 |
| 20260501213509 | 57 | 281 | 6.0 | 12.0 | 0.00 | 0.00 | 0.00 | 54 | 1014.5 |
| 20260501213034 | 57 | 64 | 7.0 | 12.0 | 0.00 | 0.00 | 0.00 | 54 | 1014.6 |
| 20260501212512 | 57 | 319 | 5.0 | 11.0 | 0.00 | 0.00 | 0.00 | 54 | 1014.6 |
| 20260501212012 | 57 | 311 | 4.0 | 13.0 | 0.00 | 0.00 | 0.00 | 55 | 1014.5 |
| 20260501211530 | 57 | 345 | 7.0 | 14.0 | 0.00 | 0.00 | 0.00 | 53 | 1014.6 |
| 20260501211010 | 58 | 325 | 5.0 | 14.0 | 0.00 | 0.00 | 0.00 | 53 | 1014.5 |
| 20260501210512 | 57 | 37 | 7.0 | 14.0 | 0.00 | 0.00 | 0.00 | 54 | 1014.5 |
| 20260501210029 | 56 | 336 | 9.0 | 18.0 | 0.00 | 0.00 | 0.00 | 55 | 1014.5 |
| 20260501205510 | 57 | 38 | 9.0 | 19.0 | 0.00 | 0.00 | 0.00 | 55 | 1014.5 |
| 20260501205012 | 57 | 19 | 12.0 | 19.0 | 0.00 | 0.00 | 0.00 | 54 | 1014.5 |
| 20260501204532 | 59 | 5 | 7.0 | 15.0 | 0.00 | 0.00 | 0.00 | 50 | 1014.6 |
| 20260501204010 | 59 | 251 | 8.0 | 15.0 | 0.00 | 0.00 | 0.00 | 46 | 1014.6 |
| 20260501203513 | 59 | 297 | 4.0 | 19.0 | 0.00 | 0.00 | 0.00 | 51 | 1014.5 |
| 20260501203032 | 58 | 271 | 3.0 | 19.0 | 0.00 | 0.00 | 0.00 | 53 | 1014.6 |
| 20260501202513 | 58 | 318 | 6.0 | 19.0 | 0.00 | 0.00 | 0.00 | 51 | 1014.9 |
| 20260501202017 | 58 | 339 | 5.0 | 11.0 | 0.00 | 0.00 | 0.00 | 51 | 1014.7 |
| 20260501201537 | 58 | 20 | 6.0 | 11.0 | 0.00 | 0.00 | 0.00 | 51 | 1014.7 |
| 20260501201012 | 58 | 326 | 5.0 | 12.0 | 0.00 | 0.00 | 0.00 | 49 | 1014.7 |
| 20260501200518 | 58 | 347 | 6.0 | 12.0 | 0.00 | 0.00 | 0.00 | 53 | 1014.8 |
| 20260501200032 | 57 | 269 | 6.0 | 10.0 | 0.00 | 0.00 | 0.00 | 53 | 1014.8 |
| 20260501195514 | 57 | 285 | 2.0 | 15.0 | 0.00 | 0.00 | 0.00 | 56 | 1015.0 |
| 20260501195012 | 57 | 30 | 9.0 | 15.0 | 0.00 | 0.00 | 0.00 | 55 | 1015.1 |
| 20260501194534 | 57 | 316 | 7.0 | 14.0 | 0.00 | 0.00 | 0.00 | 55 | 1015.1 |
| 20260501194013 | 57 | 36 | 8.0 | 14.0 | 0.00 | 0.00 | 0.00 | 54 | 1015.0 |
| 20260501193512 | 57 | 11 | 6.0 | 18.0 | 0.00 | 0.00 | 0.00 | 54 | 1014.9 |
| 20260501193033 | 58 | 36 | 9.0 | 18.0 | 0.00 | 0.00 | 0.00 | 54 | 1014.7 |
| 20260501192512 | 59 | 41 | 8.0 | 16.0 | 0.00 | 0.00 | 0.00 | 53 | 1014.7 |
| 20260501192014 | 58 | 344 | 4.0 | 26.0 | 0.00 | 0.00 | 0.00 | 48 | 1014.7 |
| 20260501191530 | 59 | 251 | 9.0 | 26.0 | 0.00 | 0.00 | 0.00 | 48 | 1014.6 |
| 20260501191014 | 59 | 317 | 8.0 | 14.0 | 0.00 | 0.00 | 0.00 | 49 | 1014.6 |
| 20260501190514 | 59 | 338 | 4.0 | 14.0 | 0.00 | 0.00 | 0.00 | 52 | 1014.6 |
| 20260501190032 | 59 | 309 | 6.0 | 17.0 | 0.00 | 0.00 | 0.00 | 52 | 1014.7 |
| 20260501185513 | 59 | 248 | 7.0 | 17.0 | 0.00 | 0.00 | 0.00 | 51 | 1014.5 |
| 20260501185010 | 59 | 32 | 7.0 | 14.0 | 0.00 | 0.00 | 0.00 | 49 | 1014.6 |
| 20260501184532 | 59 | 289 | 6.0 | 15.0 | 0.00 | 0.00 | 0.00 | 49 | 1014.4 |
| 20260501184011 | 58 | 252 | 6.0 | 16.0 | 0.00 | 0.00 | 0.00 | 50 | 1014.6 |
| 20260501183516 | 58 | 314 | 9.0 | 16.0 | 0.00 | 0.00 | 0.00 | 49 | 1014.7 |
| 20260501183030 | 58 | 324 | 5.0 | 15.0 | 0.00 | 0.00 | 0.00 | 52 | 1014.9 |
| 20260501182512 | 58 | 316 | 7.0 | 13.0 | 0.00 | 0.00 | 0.00 | 51 | 1015.0 |
| 20260501182010 | 59 | 105 | 5.0 | 10.0 | 0.00 | 0.00 | 0.00 | 50 | 1014.8 |
| 20260501181533 | 59 | 285 | 4.0 | 11.0 | 0.00 | 0.00 | 0.00 | 54 | 1014.9 |
| 20260501181012 | 58 | 283 | 3.0 | 18.0 | 0.00 | 0.00 | 0.00 | 54 | 1015.0 |
| 20260501180513 | 58 | 349 | 6.0 | 18.0 | 0.00 | 0.00 | 0.00 | 49 | 1014.9 |
| 20260501180037 | 58 | 297 | 5.0 | 17.0 | 0.00 | 0.00 | 0.00 | 51 | 1015.0 |